Neiva, Colombia

4:41 AM -05 on July 25, 2017 (GMT -0500)
Benito Salas

Weather History for SKNV - March, 2013

Change the Weather History Date:

Wednesday, March 27, 2013

  Actual Average Record
Temperature  
Mean Temperature 84 °F -  
Max Temperature 97 °F 94 °F - ()
Min Temperature 72 °F 76 °F - ()
Cooling Degree Days 20    
Growing Degree Days 34 (Base 50)    
Moisture  
Dew Point 65 °F    
Average Humidity 52    
Maximum Humidity 94    
Minimum Humidity 23    
Precipitation  
Precipitation 0.00 in 0.19 in - ()
Sea Level Pressure  
Sea Level Pressure 29.79 in    
Wind  
Wind Speed 2 mph ()    
Max Wind Speed 7 mph    
Max Gust Speed -    
Visibility 6.9 miles    
Events      
T = Trace of Precipitation, MM = Missing Value Source: Averaged Metar Reports

Daily Weather History Graph

Daily Weather History Graph

Search for Another Location

Airport or City:

Trip Planner

Search our weather history database for the weather conditions in past years. The results will help you decide how hot, cold, wet, or windy it might be!

Date:

Astronomy

Mar. 27, 2013 Rise Set
Actual Time 6:02 AM -05 6:10 PM -05
Civil Twilight 5:41 AM -05 6:31 PM -05
Nautical Twilight 5:17 AM -05 6:55 PM -05
Astronomical Twilight 4:53 AM -05 7:19 PM -05
Moon 6:32 PM -05 (3/27) 6:02 AM -05 (3/27)
Length of Visible Light 12h 49m
Length of Day
12h 07m
Full, 100% of the Moon is Illuminated
Mar 27
Full
Apr 2
Last Quarter
Apr 10
New
Apr 18
First Quarter
Apr 25
Full

Hourly Weather History & Observations

Time (-05) Temp. Heat Index Dew Point Humidity Pressure Visibility Wind Dir Wind Speed Gust Speed Precip Events Conditions
6:00 AM 71.6 °F - 69.8 °F 94% 29.86 in 6.2 mi Calm Calm - N/A   Unknown
7:00 AM 72 °F - 67 °F 81% 29.83 in 9 mi Calm Calm - -   Haze
7:00 AM 73.4 °F - 68.0 °F 83% 29.88 in 6.2 mi Calm Calm - N/A   Unknown
8:00 AM 77.0 °F - 68.0 °F 74% 29.90 in 6.2 mi WSW 4.6 mph - N/A   Partly Cloudy
9:00 AM 80.6 °F 83.2 °F 68.0 °F 65% 29.92 in 6.2 mi Variable 2.3 mph - N/A   Partly Cloudy
10:00 AM 84 °F - 67 °F 47% 29.84 in 9 mi South 6.7 mph - -   Haze
10:00 AM 84.2 °F 86.6 °F 66.2 °F 55% 29.90 in 6.2 mi South 6.9 mph - N/A   Partly Cloudy
11:00 AM 87.8 °F 90.4 °F 66.2 °F 49% 29.88 in 6.2 mi South 3.5 mph - N/A   Partly Cloudy
12:00 PM 91.4 °F 93.2 °F 64.4 °F 41% 29.85 in 6.2 mi South 4.6 mph - N/A   Partly Cloudy
1:00 PM 91 °F - 63 °F 30% 29.74 in 9 mi South 2.2 mph - -   Scattered Clouds
1:00 PM 91.4 °F 92.1 °F 62.6 °F 38% 29.81 in 6.2 mi Variable 2.3 mph - N/A   Partly Cloudy
2:00 PM 96.8 °F 97.1 °F 60.8 °F 30% 29.76 in 6.2 mi South 3.5 mph - N/A   Partly Cloudy
3:00 PM 96.8 °F 96.2 °F 59.0 °F 28% 29.71 in 6.2 mi SSW 5.8 mph - N/A   Partly Cloudy
4:00 PM 96 °F - 62 °F 23% 29.61 in 9 mi West 4.5 mph - -   Scattered Clouds
4:00 PM 96.8 °F 98.0 °F 62.6 °F 32% 29.69 in 6.2 mi West 3.5 mph - N/A   Scattered Clouds
5:00 PM 95.0 °F 93.0 °F 55.4 °F 26% 29.68 in 6.2 mi SW 3.5 mph - N/A   Scattered Clouds
6:00 PM 93.2 °F 91.9 °F 57.2 °F 30% 29.70 in 6.2 mi Calm Calm - N/A   Scattered Clouds
7:00 PM 88 °F - 65 °F 37% 29.67 in 9 mi Calm Calm - -   Scattered Clouds
7:00 PM 87.8 °F 89.4 °F 64.4 °F 46% 29.74 in 6.2 mi Calm Calm - N/A   Partly Cloudy
8:00 PM 84.2 °F 88.4 °F 69.8 °F 62% 29.77 in 6.2 mi Calm Calm - N/A   Partly Cloudy
9:00 PM 82.4 °F 85.4 °F 68.0 °F 62% 29.80 in 6.2 mi Calm Calm - N/A   Partly Cloudy
10:00 PM 81 °F - 71 °F 63% 29.78 in 9 mi Calm Calm - -   Scattered Clouds
10:00 PM 80.6 °F 83.9 °F 69.8 °F 70% 29.83 in 6.2 mi Calm Calm - N/A   Partly Cloudy
11:00 PM 80.6 °F 83.9 °F 69.8 °F 70% 29.84 in 6.2 mi Calm Calm - N/A   Scattered Clouds